When you browse on this site, cookies collect data to enhance your experience and personalize the content and advertising you see.
Visit our Privacy Policy to learn more. By continuing to use the site, you agree to this use of cookies and data.
  • En España
  • Lista de países
  • Para 7 días
  • Temperatura del agua
  • Mapa Satelital
  • El tiempo en el mapa
  • Informadores
  • user-avatar
    Iniciar sesión

    Tiempo cada hora Cobija

    Hoy, 20 Noviembre, Martes

    Tiempo Temperatura Precipitaciones Viento Presión Humedad
    00:00 +23°C° 0.6 mm 0 mps 738 mmHg 99%
    01:00 +24°C° 0 mm 1 mps 738 mmHg 99%
    02:00 +22°C° 0.6 mm 0 mps 738 mmHg 99%
    03:00 +22°C° 0.6 mm 0 mps 738 mmHg 99%
    04:00 +22°C° 0.6 mm 0 mps 738 mmHg 99%
    05:00 +22°C° 0.5 mm 0 mps 738 mmHg 99%
    06:00 +22°C° 0.5 mm 0 mps 739 mmHg 99%
    07:00 +23°C° 0.5 mm 0 mps 739 mmHg 99%
    08:00 +24°C° 0.2 mm 0 mps 739 mmHg 95%
    09:00 +25°C° 0.2 mm 0 mps 739 mmHg 91%
    10:00 +25°C° 0.2 mm 0 mps 739 mmHg 88%
    11:00 +26°C° 0.8 mm 0 mps 738 mmHg 88%
    12:00 +26°C° 0.8 mm 0 mps 738 mmHg 88%
    13:00 +27°C° 0.8 mm 0 mps 737 mmHg 87%
    14:00 +27°C° 1.5 mm 0 mps 736 mmHg 88%
    15:00 +27°C° 1.5 mm 0 mps 736 mmHg 88%
    16:00 +27°C° 1.5 mm 0 mps 735 mmHg 88%
    17:00 +26°C° 0.3 mm 0 mps 736 mmHg 91%
    18:00 +25°C° 0.3 mm 0 mps 736 mmHg 93%
    19:00 +24°C° 0.3 mm 0 mps 736 mmHg 95%
    20:00 +24°C° 0.2 mm 0 mps 737 mmHg 95%
    21:00 +23°C° 0.2 mm 0 mps 738 mmHg 96%
    22:00 +23°C° 0.2 mm 0 mps 738 mmHg 97%
    23:00 +23°C° 0.3 mm 0 mps 738 mmHg 97%

    Mañana, 21 Noviembre, Miércoles

    Tiempo Temperatura Precipitaciones Viento Presión Humedad
    00:00 +23°C° 0.3 mm 0 mps 738 mmHg 98%
    01:00 +23°C° 0.3 mm 0 mps 737 mmHg 99%
    02:00 +25°C° 1.4 mm 1 mps 738 mmHg 99%
    03:00 +25°C° 1.4 mm 1 mps 738 mmHg 99%
    04:00 +25°C° 1.4 mm 1 mps 738 mmHg 99%
    05:00 +25°C° 0.3 mm 1 mps 738 mmHg 99%
    06:00 +25°C° 0.3 mm 1 mps 738 mmHg 98%
    07:00 +26°C° 0.3 mm 1 mps 739 mmHg 98%
    08:00 +27°C° 0.6 mm 1 mps 739 mmHg 93%
    09:00 +28°C° 0.6 mm 1 mps 739 mmHg 88%
    10:00 +29°C° 0.6 mm 1 mps 739 mmHg 83%
    11:00 +30°C° 0.7 mm 1 mps 738 mmHg 81%
    12:00 +31°C° 0.7 mm 1 mps 737 mmHg 80%
    13:00 +32°C° 0.7 mm 1 mps 736 mmHg 78%
    14:00 +31°C° 0.9 mm 1 mps 736 mmHg 80%
    15:00 +31°C° 0.9 mm 1 mps 735 mmHg 82%
    16:00 +30°C° 0.9 mm 1 mps 734 mmHg 84%
    17:00 +29°C° 0.2 mm 1 mps 734 mmHg 87%
    18:00 +28°C° 0.2 mm 1 mps 735 mmHg 90%
    19:00 +26°C° 0.2 mm 1 mps 735 mmHg 94%
    20:00 +26°C° 0 mm 1 mps 736 mmHg 94%
    21:00 +26°C° 0 mm 1 mps 736 mmHg 95%
    22:00 +26°C° 0 mm 1 mps 737 mmHg 95%
    23:00 +25°C° 0 mm 1 mps 737 mmHg 96%

    Pasado mañana, 22 Noviembre, Jueves

    Tiempo Temperatura Precipitaciones Viento Presión Humedad
    00:00 +25°C° 0 mm 1 mps 736 mmHg 96%
    01:00 +25°C° 0 mm 1 mps 736 mmHg 97%
    02:00 +25°C° 0 mm 1 mps 736 mmHg 97%
    03:00 +23°C° 0 mm 0 mps 736 mmHg 96%
    04:00 +22°C° 0 mm 0 mps 736 mmHg 96%
    05:00 +25°C° 0 mm 1 mps 736 mmHg 92%
    06:00 +26°C° 0 mm 1 mps 737 mmHg 88%
    07:00 +27°C° 0 mm 1 mps 737 mmHg 83%
    08:00 +29°C° 0 mm 1 mps 737 mmHg 73%
    09:00 +32°C° 0 mm 1 mps 737 mmHg 62%
    10:00 +35°C° 0 mm 2 mps 738 mmHg 52%
    11:00 +36°C° 0.4 mm 2 mps 736 mmHg 51%
    12:00 +36°C° 0.4 mm 2 mps 735 mmHg 50%
    13:00 +37°C° 0.4 mm 2 mps 734 mmHg 49%
    14:00 +37°C° 0 mm 2 mps 733 mmHg 49%
    15:00 +37°C° 0 mm 2 mps 733 mmHg 49%
    16:00 +35°C° 0 mm 1 mps 732 mmHg 48%
    17:00 +34°C° 0 mm 1 mps 733 mmHg 55%
    18:00 +32°C° 0 mm 1 mps 733 mmHg 62%
    19:00 +30°C° 0 mm 1 mps 734 mmHg 69%
    20:00 +29°C° 0 mm 1 mps 734 mmHg 70%
    21:00 +29°C° 0 mm 1 mps 734 mmHg 71%
    22:00 +28°C° 0 mm 1 mps 735 mmHg 72%
    23:00 +28°C° 0.2 mm 1 mps 734 mmHg 77%

    23 Noviembre, Viernes

    Tiempo Temperatura Precipitaciones Viento Presión Humedad
    00:00 +27°C° 0.2 mm 1 mps 734 mmHg 82%
    01:00 +26°C° 0.2 mm 1 mps 733 mmHg 86%
    02:00 +26°C° 0.3 mm 1 mps 733 mmHg 88%
    03:00 +25°C° 0.3 mm 1 mps 733 mmHg 90%
    04:00 +25°C° 0.3 mm 1 mps 733 mmHg 92%
    05:00 +26°C° 0 mm 1 mps 734 mmHg 88%
    06:00 +27°C° 0 mm 1 mps 735 mmHg 84%
    07:00 +28°C° 0 mm 2 mps 736 mmHg 80%
    08:00 +30°C° 0 mm 2 mps 736 mmHg 70%
    09:00 +34°C° 0 mm 2 mps 736 mmHg 60%
    10:00 +36°C° 0 mm 2 mps 736 mmHg 49%
    11:00 +37°C° 0 mm 2 mps 735 mmHg 48%
    12:00 +37°C° 0 mm 2 mps 734 mmHg 46%
    13:00 +37°C° 0 mm 2 mps 733 mmHg 44%
    14:00 +36°C° 0 mm 2 mps 733 mmHg 50%
    15:00 +34°C° 0 mm 1 mps 732 mmHg 57%
    16:00 +32°C° 0 mm 1 mps 732 mmHg 63%
    17:00 +31°C° 1 mm 1 mps 732 mmHg 71%
    18:00 +29°C° 1 mm 1 mps 733 mmHg 79%
    19:00 +28°C° 1 mm 1 mps 733 mmHg 87%
    20:00 +27°C° 4.5 mm 1 mps 734 mmHg 90%
    21:00 +27°C° 4.5 mm 1 mps 734 mmHg 94%
    22:00 +26°C° 4.5 mm 1 mps 735 mmHg 97%
    23:00 +26°C° 5.4 mm 1 mps 735 mmHg 98%

    24 Noviembre, Sábado

    Tiempo Temperatura Precipitaciones Viento Presión Humedad
    00:00 +26°C° 5.4 mm 1 mps 734 mmHg 98%
    01:00 +26°C° 5.4 mm 1 mps 734 mmHg 99%
    02:00 +26°C° 2.1 mm 1 mps 734 mmHg 99%
    03:00 +26°C° 2.1 mm 1 mps 734 mmHg 98%
    04:00 +23°C° 2.1 mm 0 mps 734 mmHg 98%
    05:00 +26°C° 0.8 mm 1 mps 735 mmHg 98%
    06:00 +26°C° 0.8 mm 1 mps 736 mmHg 98%
    07:00 +26°C° 0.8 mm 1 mps 737 mmHg 98%
    08:00 +27°C° 1.1 mm 1 mps 737 mmHg 97%
    09:00 +28°C° 1.1 mm 1 mps 737 mmHg 96%
    10:00 +28°C° 1.1 mm 1 mps 737 mmHg 95%
    11:00 +28°C° 1.1 mm 1 mps 736 mmHg 95%
    12:00 +29°C° 1.1 mm 1 mps 736 mmHg 95%
    13:00 +29°C° 1.1 mm 1 mps 735 mmHg 95%
    14:00 +29°C° 0.7 mm 1 mps 735 mmHg 95%
    15:00 +27°C° 0.7 mm 0 mps 734 mmHg 95%
    16:00 +27°C° 0.7 mm 0 mps 734 mmHg 95%
    17:00 +26°C° 0.6 mm 0 mps 734 mmHg 96%
    18:00 +25°C° 0.6 mm 0 mps 735 mmHg 97%
    19:00 +24°C° 0.6 mm 0 mps 736 mmHg 98%
    20:00 +24°C° 0.4 mm 0 mps 736 mmHg 98%
    21:00 +23°C° 0.4 mm 0 mps 737 mmHg 98%
    22:00 +23°C° 0.4 mm 0 mps 737 mmHg 98%
    23:00 +23°C° 0.4 mm 0 mps 736 mmHg 99%

    25 Noviembre, Domingo

    Tiempo Temperatura Precipitaciones Viento Presión Humedad
    00:00 +23°C° 0.4 mm 0 mps 736 mmHg 99%
    01:00 +23°C° 0.4 mm 0 mps 735 mmHg 99%
    02:00 +23°C° 0.8 mm 0 mps 736 mmHg 99%
    03:00 +23°C° 0.8 mm 0 mps 736 mmHg 99%
    04:00 +22°C° 0.8 mm 0 mps 736 mmHg 99%
    05:00 +23°C° 2.5 mm 0 mps 737 mmHg 99%
    06:00 +23°C° 2.5 mm 0 mps 737 mmHg 99%
    07:00 +25°C° 2.5 mm 1 mps 738 mmHg 99%
    08:00 +25°C° 2 mm 1 mps 738 mmHg 99%
    09:00 +25°C° 2 mm 1 mps 738 mmHg 99%
    10:00 +25°C° 2 mm 1 mps 738 mmHg 99%
    11:00 +26°C° 0.5 mm 1 mps 738 mmHg 97%
    12:00 +26°C° 0.5 mm 1 mps 737 mmHg 95%
    13:00 +25°C° 0.5 mm 0 mps 736 mmHg 94%
    14:00 +25°C° 0.1 mm 0 mps 736 mmHg 90%
    15:00 +26°C° 0.1 mm 0 mps 735 mmHg 86%
    16:00 +26°C° 0.1 mm 0 mps 735 mmHg 83%
    17:00 +25°C° 0 mm 0 mps 735 mmHg 87%
    18:00 +24°C° 0 mm 0 mps 736 mmHg 91%
    19:00 +23°C° 0 mm 0 mps 736 mmHg 96%
    20:00 +23°C° 0 mm 0 mps 736 mmHg 96%
    21:00 +23°C° 0 mm 0 mps 737 mmHg 95%
    22:00 +23°C° 0 mm 0 mps 737 mmHg 95%
    23:00 +23°C° 0.4 mm 0 mps 737 mmHg 96%
    Mostrar más